Skip Page Navigation
NASA JPL Caltech
NASA Logo - Jet Propulsion Laboratory + View the NASA Portal
+ Center for Near-Earth Object Studies
JPL Home Earth Solar System Stars & Galaxies Technology
JPL Solar System Dynamics
BODIES ORBITS EPHEMERIDES TOOLS PHYSICAL DATA DISCOVERY FAQ SITE MAP
JPL Small-Body Database Browser
Search: [ help ]  
11519 Adler (1991 GZ4)
Classification: Main-belt Asteroid          SPK-ID: 2011519
Ephemeris | Orbit Diagram | Orbital Elements | Mission Design | Physical Parameters | Discovery Circumstances ]

[ show orbit diagram ]
Orbital Elements at Epoch 2459000.5 (2020-May-31.0) TDB
Reference: JPL 30 (heliocentric ecliptic J2000)
 Element Value Uncertainty (1-sigma)   Units 
e .1574918913540819 3.1208e-08  
a 2.39335844143849 7.7311e-09 au
q 2.016423893808085 7.5738e-08 au
i 1.662609206659182 3.8595e-06 deg
node 37.57587694836727 0.00011018 deg
peri 216.8550393491357 0.00011084 deg
M 271.8980171346627 1.3093e-05 deg
tp 2459331.473503739292
(2021-Apr-26.97350374)
4.9824e-05 TDB
period 1352.415206457557
3.70
6.5529e-06
1.794e-08
d
yr
n .2661904408358174 1.2898e-09 deg/d
Q 2.770292989068895 8.9487e-09 au
  Orbit Determination Parameters
   # obs. used (total)      1814  
   data-arc span      16095 days (44.07 yr)  
   first obs. used      1976-04-01  
   last obs. used      2020-04-25  
   planetary ephem.      DE431  
   SB-pert. ephem.      SB431-N16  
   condition code      0  
   norm. resid. RMS      .49687  
   source      ORB  
   producer      Otto Matic  
   solution date      2020-May-20 03:33:28  

Additional Information
 Earth MOID = 1.00205 au 
 Jupiter MOID = 2.27384 au 
 T_jup = 3.513 
[ show covariance matrix ]

Ephemeris | Orbit Diagram | Orbital Elements | Mission Design | Physical Parameters | Discovery Circumstances ]

Physical Parameter Table
Parameter Symbol Value Units Sigma Reference Notes
absolute magnitude H 14.5   n/a MPO416838  
diameter diameter 2.640 km 0.154 urn:nasa:pds:neowise_diameters_albedos::2.0[mainbelt] (http://adsabs.harvard.edu/abs/2011ApJ...741...68M)  
geometric albedo albedo 0.305   0.054 urn:nasa:pds:neowise_diameters_albedos::2.0[mainbelt] (http://adsabs.harvard.edu/abs/2011ApJ...741...68M)  

11519 Adler           Discovered 1991 Apr. 8 by E. W. Elst at the European Southern Observatory.
Alfred Adler (1870-1937) was an Austrian psychiatrist who introduced the term "inferiority feeling" (inferiority complex) into psychology: mental health is characterized by reason and social interest, mental disorder by inferiority, self concern and superiority over others". In 1934 the Austrian government closed his 30 clinics.
NOTE: some special characters may not display properly (any characters within {} are an attempt to place the proper accent above a character)
Reference: 20000523/MPCPages.arcLast Updated: 2013-03-29

Alternate Designations
 1991 GZ4 = 1976 GX = 1997 BX9 = 1999 NC11 
Ephemeris | Orbit Diagram | Orbital Elements | Mission Design | Physical Parameters | Discovery Circumstances ]
ABOUT SSD CREDITS/AWARDS PRIVACY/COPYRIGHT GLOSSARY LINKS
FirstGov 2020-Oct-24 21:13 UT
(server date/time)  
NASA Home Page
Site Manager:   Ryan S. Park
Webmaster  Alan B. Chamberlin